Regional Weather Roundup
Issued by NWS Jackson, KY

Home | Current Version | Previous Version | Graphics & Text | Print | Product List | Glossary On
Versions: 1 2 3 4 5 6 7 8 9 10 11 12 13 14 15 16 17 18 19 20 21 22 23 24 25 26 27 28 29 30 31 32 33 34 35 36 37 38 39 40 41 42 43 44 45 46 47 48 49 50
000
ASUS43 KJKL 280810
RWRJKL

EAST KENTUCKY HOURLY WEATHER ROUNDUP
NATIONAL WEATHER SERVICE JACKSON KY
400 AM EDT THU MAY 28 2015

NOTE: "FAIR" INDICATES FEW OR NO CLOUDS BELOW 12,000 FEET WITH
NO SIGNIFICANT WEATHER AND/OR OBSTRUCTIONS TO VISIBILITY.

* THESE REPORTS ARE NOT UNDER NWS QUALITY CONTROL AND MAY NOT
  REPORT WEATHER SUCH AS PRECIPITATION AND FOG.

KYZ079-080-083-085-087-088-110-112-115-119-120-280900
...EASTERN KENTUCKY...

CITY           SKY/WX    TMP DP  RH WIND       PRES   REMARKS
JACKSON        MOCLDY    65  61  87 CALM      30.19F
LONDON         MOCLDY    62  57  83 CALM      30.19F
SOMERSET*      FOG       59  59 100 CALM      30.20S VSB 1/4
MONTICELLO*    MOCLDY    62  62 100 CALM      30.21F
MIDDLESBORO*   CLOUDY    64  64 100 CALM      30.20F FOG
HARLAN APT*    CLOUDY    63  63 100 CALM      30.21F VSB 3/4
HAZARD APT*    PTSUNNY   64  64 100 CALM      30.19F
BLACK MTN*       N/A     61  59  94 SW6         N/A
PIKEVILLE APT* MOCLDY    66  63  88 CALM      30.20F
BIG SANDY*     PTSUNNY   65  62  91 CALM      30.20R
$$

KYZ035-036-041-042-044-050-067-078-099-280900
...CENTRAL KENTUCKY...

CITY           SKY/WX    TMP DP  RH WIND       PRES   REMARKS
MT STERLING*   MOCLDY    61  61 100 CALM      30.20S
FLEMING/MASON* CLEAR     59  59 100 CALM      30.19F FOG
DANVILLE*      CLOUDY    61  61 100 CALM      30.19S
RICHMOND*      CLOUDY    63  59  88 CALM      30.18S
LEXINGTON      CLOUDY    62  60  93 CALM      30.18S
FRANKFORT      CLOUDY    61  59  93 CALM      30.16S
$$

KYZ091>093-OHZ055-061-077-WVZ005-015-034-035-042-280900
...SOUTHERN OHIO/WEST VIRGINIA...

CITY           SKY/WX    TMP DP  RH WIND       PRES   REMARKS
COVINGTON      MOCLDY    62  60  93 CALM      30.17R
COLUMBUS       CLOUDY    66  60  81 CALM      30.15S
DAYTON         MOCLDY    65  63  93 W7        30.16F
WILMINGTON     MOCLDY    61  58  90 S5        30.17R
HUNTINGTON     PTCLDY    62  60  93 CALM      30.17S
CHARLESTON     MOCLDY    64  63  96 CALM      30.18S
PINEVILLE*     MOCLDY    60  60 100 MISG      30.26S
BECKLEY        PTCLDY    59  56  89 CALM      30.24S
BLUEFIELD      CLOUDY    67  55  65 CALM      30.26F
$$

VAZ002-007-008-TNZ017-027-036-066-071-280900
...SOUTHWEST VIRGINIA/EAST TENNESSEE...

CITY           SKY/WX    TMP DP  RH WIND       PRES   REMARKS
WISE*          CLOUDY    66  55  68 W6        30.26S
JONESVILLE*    CLOUDY    63  63 100 CALM      30.23S
ABINGDON*      CLOUDY    66  62  86 N3        30.23S
BRISTOL        CLOUDY    65  62  90 CALM      30.21S
KNOXVILLE      MOCLDY    70  62  76 S6        30.16F
OAK RIDGE      MOCLDY    69  66  90 CALM      30.18F
CROSSVILLE     CLOUDY    66  62  87 CALM      30.20F
$$

...KEY TO REMARKS...
VSB - VISIBILITY IN MILES
WCI - WIND CHILL INDEX
HX  - HEAT INDEX

$$


USA.gov is the U.S. government's official web portal to all federal, state and local government web resources and services.